When you browse on this site, cookies collect data to enhance your experience and personalize the content and advertising you see.
Visit our Privacy Policy to learn more. By continuing to use the site, you agree to this use of cookies and data.

Météo par heure à Wilmslow

Ce jour, 2 Juillet, Jeudi

Heure Température Précipitation Vent Pression Humidité
00:00 +14°C° 0 mm 2 m/s 747 mmHg 95%
01:00 +14°C° 1 mm 2 m/s 747 mmHg 95%
02:00 +14°C° 1 mm 2 m/s 747 mmHg 95%
03:00 +14°C° 1 mm 2 m/s 747 mmHg 95%
04:00 +14°C° 2 mm 2 m/s 747 mmHg 95%
05:00 +14°C° 2 mm 2 m/s 748 mmHg 94%
06:00 +14°C° 0 mm 2 m/s 748 mmHg 95%
07:00 +14°C° 0.7 mm 2 m/s 748 mmHg 93%
08:00 +14°C° 0.7 mm 2 m/s 749 mmHg 92%
09:00 +14°C° 0.7 mm 2 m/s 749 mmHg 90%
10:00 +15°C° 0.2 mm 2 m/s 749 mmHg 87%
11:00 +15°C° 0.2 mm 2 m/s 750 mmHg 84%
12:00 +16°C° 0.2 mm 2 m/s 750 mmHg 81%
13:00 +17°C° 0.1 mm 2 m/s 750 mmHg 77%
14:00 +18°C° 0.1 mm 3 m/s 750 mmHg 73%
15:00 +18°C° 0.1 mm 3 m/s 750 mmHg 69%
16:00 +18°C° 0.1 mm 3 m/s 751 mmHg 70%
17:00 +17°C° 0.1 mm 3 m/s 751 mmHg 71%
18:00 +17°C° 0.1 mm 3 m/s 751 mmHg 72%
19:00 +16°C° 0 mm 3 m/s 751 mmHg 75%
20:00 +13°C° 0 mm 3 m/s 752 mmHg 78%
21:00 +13°C° 0 mm 2 m/s 752 mmHg 81%
22:00 +13°C° 0 mm 2 m/s 752 mmHg 83%
23:00 +13°C° 0 mm 2 m/s 752 mmHg 85%

Demain, 3 Juillet, Vendredi

Heure Température Précipitation Vent Pression Humidité
00:00 +12°C° 0 mm 3 m/s 752 mmHg 87%
01:00 +11°C° 0 mm 3 m/s 752 mmHg 88%
02:00 +11°C° 0 mm 3 m/s 751 mmHg 89%
03:00 +11°C° 0 mm 3 m/s 751 mmHg 89%
04:00 +12°C° 0.1 mm 4 m/s 751 mmHg 89%
05:00 +12°C° 0.1 mm 5 m/s 751 mmHg 89%
06:00 +12°C° 0.1 mm 5 m/s 751 mmHg 88%
07:00 +12°C° 0.3 mm 5 m/s 750 mmHg 89%
08:00 +11°C° 0.3 mm 6 m/s 750 mmHg 89%
09:00 +11°C° 0.3 mm 6 m/s 750 mmHg 90%
10:00 +13°C° 0.1 mm 6 m/s 749 mmHg 89%
11:00 +14°C° 0.1 mm 6 m/s 749 mmHg 87%
12:00 +15°C° 0.1 mm 7 m/s 749 mmHg 86%
13:00 +15°C° 0.1 mm 7 m/s 749 mmHg 86%
14:00 +15°C° 0.1 mm 7 m/s 748 mmHg 86%
15:00 +15°C° 0.1 mm 7 m/s 748 mmHg 86%
16:00 +16°C° 0.1 mm 7 m/s 748 mmHg 87%
17:00 +16°C° 0.1 mm 6 m/s 749 mmHg 87%
18:00 +16°C° 0.1 mm 6 m/s 749 mmHg 88%
19:00 +16°C° 0.1 mm 5 m/s 749 mmHg 89%
20:00 +16°C° 0.1 mm 5 m/s 749 mmHg 90%
21:00 +17°C° 0.1 mm 4 m/s 749 mmHg 90%
22:00 +15°C° 0.2 mm 4 m/s 749 mmHg 91%
23:00 +15°C° 0.2 mm 4 m/s 749 mmHg 92%

Après-demain, 4 Juillet, Samedi

Heure Température Précipitation Vent Pression Humidité
00:00 +15°C° 0.2 mm 4 m/s 748 mmHg 93%
01:00 +15°C° 1.3 mm 5 m/s 748 mmHg 94%
02:00 +16°C° 1.3 mm 5 m/s 747 mmHg 94%
03:00 +16°C° 1.3 mm 5 m/s 747 mmHg 95%
04:00 +16°C° 0.6 mm 5 m/s 747 mmHg 95%
05:00 +16°C° 0.6 mm 5 m/s 747 mmHg 94%
06:00 +16°C° 0.6 mm 5 m/s 746 mmHg 93%
07:00 +16°C° 0.3 mm 5 m/s 746 mmHg 93%
08:00 +17°C° 0.3 mm 5 m/s 746 mmHg 92%
09:00 +17°C° 0.3 mm 5 m/s 746 mmHg 91%
10:00 +17°C° 0.1 mm 5 m/s 746 mmHg 90%
11:00 +17°C° 0.1 mm 6 m/s 747 mmHg 88%
12:00 +19°C° 0.1 mm 6 m/s 747 mmHg 87%
13:00 +19°C° 0.2 mm 6 m/s 747 mmHg 85%
14:00 +19°C° 0.2 mm 6 m/s 747 mmHg 84%
15:00 +19°C° 0.2 mm 6 m/s 747 mmHg 82%
16:00 +17°C° 0.1 mm 6 m/s 747 mmHg 81%
17:00 +17°C° 0.1 mm 6 m/s 747 mmHg 81%
18:00 +17°C° 0.1 mm 6 m/s 748 mmHg 80%
19:00 +17°C° 0.1 mm 5 m/s 748 mmHg 81%
20:00 +16°C° 0.1 mm 5 m/s 748 mmHg 81%
21:00 +15°C° 0.1 mm 4 m/s 749 mmHg 82%
22:00 +15°C° 0 mm 4 m/s 749 mmHg 84%
23:00 +14°C° 0 mm 4 m/s 749 mmHg 87%

5 Juillet, Dimanche

Heure Température Précipitation Vent Pression Humidité
00:00 +14°C° 0 mm 4 m/s 748 mmHg 89%
01:00 +14°C° 0 mm 4 m/s 748 mmHg 89%
02:00 +14°C° 0 mm 5 m/s 747 mmHg 90%
03:00 +14°C° 0 mm 5 m/s 746 mmHg 90%
04:00 +15°C° 0.3 mm 6 m/s 746 mmHg 91%
05:00 +16°C° 0.3 mm 7 m/s 745 mmHg 91%
06:00 +16°C° 0.3 mm 7 m/s 744 mmHg 92%
07:00 +17°C° 0.5 mm 8 m/s 744 mmHg 88%
08:00 +17°C° 0.5 mm 9 m/s 744 mmHg 85%
09:00 +17°C° 0.5 mm 10 m/s 744 mmHg 81%
10:00 +17°C° 0.4 mm 9 m/s 744 mmHg 78%
11:00 +16°C° 0.4 mm 9 m/s 745 mmHg 76%
12:00 +16°C° 0.4 mm 8 m/s 745 mmHg 73%
13:00 +16°C° 0.1 mm 8 m/s 746 mmHg 70%
14:00 +16°C° 0.1 mm 8 m/s 746 mmHg 67%
15:00 +16°C° 0.1 mm 8 m/s 747 mmHg 64%
16:00 +16°C° 0.1 mm 7 m/s 747 mmHg 65%
17:00 +15°C° 0.1 mm 7 m/s 747 mmHg 65%
18:00 +15°C° 0.1 mm 6 m/s 747 mmHg 66%
19:00 +14°C° 0.1 mm 6 m/s 748 mmHg 69%
20:00 +13°C° 0.1 mm 6 m/s 748 mmHg 72%
21:00 +11°C° 0.1 mm 6 m/s 749 mmHg 75%
22:00 +11°C° 0.1 mm 6 m/s 748 mmHg 76%
23:00 +10°C° 0.1 mm 6 m/s 748 mmHg 77%

6 Juillet, Lundi

Heure Température Précipitation Vent Pression Humidité
00:00 +10°C° 0.1 mm 6 m/s 748 mmHg 79%
01:00 +10°C° 0.1 mm 7 m/s 749 mmHg 79%
02:00 +10°C° 0.1 mm 7 m/s 749 mmHg 79%
03:00 +10°C° 0.1 mm 7 m/s 749 mmHg 80%
04:00 +11°C° 0.1 mm 7 m/s 749 mmHg 80%
05:00 +11°C° 0.1 mm 7 m/s 750 mmHg 80%
06:00 +11°C° 0.1 mm 7 m/s 751 mmHg 80%
07:00 +12°C° 0.1 mm 8 m/s 751 mmHg 76%
08:00 +12°C° 0.1 mm 8 m/s 752 mmHg 72%
09:00 +13°C° 0.1 mm 8 m/s 753 mmHg 68%
10:00 +15°C° 0 mm 8 m/s 754 mmHg 65%
11:00 +15°C° 0 mm 8 m/s 755 mmHg 62%
12:00 +16°C° 0 mm 7 m/s 755 mmHg 59%
13:00 +16°C° 0 mm 7 m/s 756 mmHg 59%
14:00 +16°C° 0 mm 7 m/s 756 mmHg 58%
15:00 +16°C° 0 mm 7 m/s 757 mmHg 58%
16:00 +15°C° 0 mm 7 m/s 757 mmHg 60%
17:00 +15°C° 0 mm 6 m/s 757 mmHg 62%
18:00 +14°C° 0 mm 6 m/s 758 mmHg 64%
19:00 +13°C° 0 mm 5 m/s 758 mmHg 67%
20:00 +12°C° 0 mm 4 m/s 759 mmHg 70%
21:00 +11°C° 0 mm 3 m/s 759 mmHg 73%
22:00 +10°C° 0 mm 3 m/s 759 mmHg 75%
23:00 +10°C° 0 mm 3 m/s 760 mmHg 77%

7 Juillet, Mardi

Heure Température Précipitation Vent Pression Humidité
00:00 +10°C° 0 mm 2 m/s 760 mmHg 79%
01:00 +9°C° 0 mm 2 m/s 760 mmHg 81%
02:00 +9°C° 0 mm 2 m/s 760 mmHg 83%
03:00 +9°C° 0 mm 2 m/s 760 mmHg 85%
04:00 +10°C° 0 mm 2 m/s 760 mmHg 84%
05:00 +10°C° 0 mm 2 m/s 760 mmHg 84%
06:00 +12°C° 0 mm 2 m/s 760 mmHg 83%
07:00 +12°C° 0 mm 3 m/s 760 mmHg 78%
08:00 +13°C° 0 mm 4 m/s 761 mmHg 74%
09:00 +15°C° 0 mm 4 m/s 761 mmHg 69%
10:00 +15°C° 0 mm 4 m/s 761 mmHg 66%
11:00 +17°C° 0 mm 4 m/s 760 mmHg 63%
12:00 +18°C° 0 mm 4 m/s 760 mmHg 59%
13:00 +18°C° 0 mm 4 m/s 760 mmHg 58%
14:00 +18°C° 0 mm 4 m/s 760 mmHg 56%
15:00 +19°C° 0 mm 4 m/s 760 mmHg 54%
16:00 +18°C° 0 mm 4 m/s 760 mmHg 57%
17:00 +17°C° 0 mm 3 m/s 760 mmHg 60%
18:00 +17°C° 0 mm 3 m/s 759 mmHg 62%
19:00 +16°C° 0 mm 2 m/s 759 mmHg 64%
20:00 +14°C° 0 mm 2 m/s 760 mmHg 66%
21:00 +13°C° 0 mm 1 m/s 760 mmHg 68%
22:00 +13°C° 0 mm 1 m/s 759 mmHg 69%
23:00 +12°C° 0 mm 1 m/s 759 mmHg 69%
Voir plus